TimeCDT,TemperatureF,Dew PointF,Humidity,Sea Level PressureIn,VisibilityMPH,Wind Direction,Wind SpeedMPH,Gust SpeedMPH,PrecipitationIn,Events,Conditions,WindDirDegrees,DateUTC
12:53 AM,66.0,64.9,96,29.98,9.0,Calm,Calm,-,N/A,,Clear,0,2013-10-02 05:53:00
1:53 AM,64.9,64.0,97,29.98,7.0,Calm,Calm,-,N/A,,Clear,0,2013-10-02 06:53:00
2:53 AM,64.0,64.0,100,29.98,7.0,Calm,Calm,-,N/A,,Clear,0,2013-10-02 07:53:00
3:29 AM,64.4,64.4,100,30.01,2.5,Calm,Calm,-,N/A,,Clear,0,2013-10-02 08:29:00
3:38 AM,64.4,64.4,100,30.01,6.0,Calm,Calm,-,N/A,,Clear,0,2013-10-02 08:38:00
3:47 AM,64.4,64.4,100,30.01,1.8,Calm,Calm,-,N/A,,Clear,0,2013-10-02 08:47:00
3:53 AM,63.0,63.0,100,29.97,0.8,Calm,Calm,-,N/A,,Clear,0,2013-10-02 08:53:00
4:00 AM,62.6,62.6,100,30.01,2.5,Calm,Calm,-,N/A,,Clear,0,2013-10-02 09:00:00
4:07 AM,62.6,62.6,100,30.01,4.0,Calm,Calm,-,N/A,,Clear,0,2013-10-02 09:07:00
4:33 AM,62.6,62.6,100,30.01,1.8,Calm,Calm,-,N/A,,Clear,0,2013-10-02 09:33:00
4:42 AM,62.6,62.6,100,30.02,3.0,Calm,Calm,-,N/A,,Partly Cloudy,0,2013-10-02 09:42:00
4:53 AM,63.0,63.0,100,29.98,8.0,Calm,Calm,-,N/A,,Mostly Cloudy,0,2013-10-02 09:53:00
5:53 AM,64.0,63.0,96,29.99,8.0,Calm,Calm,-,N/A,,Clear,0,2013-10-02 10:53:00
6:53 AM,64.0,63.0,96,30.00,9.0,Calm,Calm,-,0.01,,Partly Cloudy,0,2013-10-02 11:53:00
7:53 AM,64.9,64.0,97,30.01,8.0,Calm,Calm,-,N/A,,Mostly Cloudy,0,2013-10-02 12:53:00
8:53 AM,71.1,68.0,90,30.02,10.0,Calm,Calm,-,N/A,,Partly Cloudy,0,2013-10-02 13:53:00
9:53 AM,75.0,68.0,79,30.03,10.0,South,10.4,-,N/A,,Overcast,180,2013-10-02 14:53:00
10:15 AM,75.2,68.0,78,30.06,10.0,South,9.2,-,N/A,,Overcast,180,2013-10-02 15:15:00
10:53 AM,75.9,66.9,74,30.03,10.0,South,12.7,-,N/A,,Mostly Cloudy,180,2013-10-02 15:53:00
11:53 AM,77.0,66.9,71,30.02,10.0,South,9.2,-,N/A,,Overcast,180,2013-10-02 16:53:00
12:53 PM,79.0,68.0,69,30.00,10.0,South,12.7,-,N/A,,Mostly Cloudy,180,2013-10-02 17:53:00
1:53 PM,78.1,66.9,68,29.97,10.0,Variable,3.5,-,N/A,,Mostly Cloudy,0,2013-10-02 18:53:00
2:05 PM,78.8,66.2,65,30.00,10.0,South,9.2,-,N/A,,Mostly Cloudy,190,2013-10-02 19:05:00
2:13 PM,80.6,66.2,61,29.99,10.0,South,12.7,-,N/A,,Overcast,190,2013-10-02 19:13:00
2:53 PM,79.0,66.0,64,29.95,10.0,South,10.4,-,N/A,,Overcast,180,2013-10-02 19:53:00
3:53 PM,82.0,64.9,56,29.93,10.0,South,11.5,-,N/A,,Scattered Clouds,180,2013-10-02 20:53:00
4:53 PM,80.1,66.0,62,29.91,10.0,SE,6.9,-,N/A,,Scattered Clouds,140,2013-10-02 21:53:00
5:53 PM,80.1,66.9,64,29.92,10.0,SSE,9.2,-,N/A,,Scattered Clouds,160,2013-10-02 22:53:00
6:53 PM,75.9,68.0,76,29.93,10.0,SE,3.5,-,N/A,,Clear,130,2013-10-02 23:53:00
7:53 PM,72.0,66.9,84,29.93,10.0,SSE,3.5,-,N/A,,Clear,160,2013-10-03 00:53:00
8:53 PM,72.0,66.9,84,29.94,10.0,South,3.5,-,N/A,,Clear,180,2013-10-03 01:53:00
9:53 PM,73.0,66.9,81,29.94,10.0,SE,6.9,-,N/A,,Clear,140,2013-10-03 02:53:00
10:53 PM,72.0,66.0,81,29.95,10.0,SSE,3.5,-,N/A,,Clear,150,2013-10-03 03:53:00
11:53 PM,72.0,66.9,84,29.94,10.0,SSE,6.9,-,N/A,,Clear,150,2013-10-03 04:53:00